Location: Clyde
(45.1830°S, 169.3170°E)
Time: 02:02:36
(UTC+13:00)

Terra - Pass Details

Date: 24 January 2019
Orbit: 701 x 703 km, 98.2° (Epoch: 16 February)

Event Time Altitude Azimuth Distance (km) Brightness Sun altitude
Rises 23:10:50 0° 147° (SSE) 3,133 5.4 -15.6°
Reaches altitude 10° 23:14:24 10° 120° (ESE) 2,202 4.3 -16.0°
Maximum altitude 23:16:39 13° 92° (E) 1,983 3.8 -16.2°
Enters shadow 23:16:48 13° 90° (E) 1,983 3.8 -16.3°
